Wetterdaten: aktuell Dienstag, 21.09.2021 22:40
Datum Zeit Temp. I. Temp. A. Temp. 2 Temp. Wind Windchill X Feuchte I. Feuchte A. Feuchte 2 Luftdruck Regen Wind Richtung Richtung Taupunkt Windchill Windben
21.09.2021 22:40 21,4 C 8,7 C 19,3 C 8,4 C 7,9 C 57 % 81 % 66 % 1030,5 hPa 0,0 mm 0,0 km/h (0 Bft) N-NO 22 5,6 C 8,7 C 0,0 km/h (0 Bft)
21.09.2021 22:35 21,4 C 8,9 C 19,3 C 8,6 C 8,0 C 57 % 81 % 66 % 1030,5 hPa 0,0 mm 0,0 km/h (0 Bft) N-NO 22 5,8 C 8,9 C 0,0 km/h (0 Bft)
21.09.2021 22:30 21,4 C 8,9 C 19,3 C 8,6 C 7,9 C 57 % 81 % 66 % 1030,5 hPa 0,0 mm 0,0 km/h (0 Bft) N-NO 22 5,8 C 8,9 C 0,0 km/h (0 Bft)
21.09.2021 22:25 21,4 C 8,9 C 19,3 C 8,6 C 7,9 C 57 % 80 % 66 % 1031,2 hPa 0,0 mm 0,0 km/h (0 Bft) N-NO 22 5,6 C 8,9 C 0,0 km/h (0 Bft)
21.09.2021 22:20 21,4 C 9,0 C 19,3 C 8,6 C 7,9 C 57 % 80 % 66 % 1031,2 hPa 0,0 mm 0,0 km/h (0 Bft) N-NO 22 5,7 C 9,0 C 0,0 km/h (0 Bft)
21.09.2021 22:15 21,4 C 9,1 C 19,2 C 8,8 C 8,1 C 57 % 80 % 66 % 1031,2 hPa 0,0 mm 0,0 km/h (0 Bft) N-NO 22 5,8 C 9,1 C 0,0 km/h (0 Bft)
21.09.2021 22:10 21,4 C 9,1 C 19,2 C 8,8 C 8,1 C 57 % 80 % 66 % 1031,2 hPa 0,0 mm 0,0 km/h (0 Bft) N-NO 22 5,8 C 9,1 C 0,0 km/h (0 Bft)
21.09.2021 22:05 21,5 C 9,2 C 19,2 C 8,8 C 8,1 C 57 % 80 % 66 % 1030,4 hPa 0,0 mm 0,0 km/h (0 Bft) N-NO 22 5,9 C 9,2 C 0,0 km/h (0 Bft)
21.09.2021 22:00 21,4 C 9,2 C 19,2 C 8,9 C 8,2 C 57 % 79 % 66 % 1030,4 hPa 0,0 mm 0,0 km/h (0 Bft) N-NO 22 5,8 C 9,2 C 0,0 km/h (0 Bft)
21.09.2021 21:55 21,5 C 9,4 C 19,2 C 9,0 C 8,3 C 57 % 79 % 67 % 1030,4 hPa 0,0 mm 0,0 km/h (0 Bft) N-NO 22 5,9 C 9,4 C 0,0 km/h (0 Bft)
21.09.2021 21:50 21,5 C 9,4 C 19,2 C 9,0 C 8,3 C 57 % 79 % 67 % 1030,4 hPa 0,0 mm 0,0 km/h (0 Bft) N-NO 22 5,9 C 9,4 C 0,0 km/h (0 Bft)
21.09.2021 21:45 21,5 C 9,5 C 19,1 C 9,2 C 8,6 C 56 % 78 % 67 % 1030,3 hPa 0,0 mm 0,0 km/h (0 Bft) N-NO 22 5,9 C 9,5 C 0,0 km/h (0 Bft)
21.09.2021 21:40 21,5 C 9,6 C 19,1 C 9,3 C 8,7 C 56 % 78 % 67 % 1030,3 hPa 0,0 mm 0,0 km/h (0 Bft) N-NO 22 6,0 C 9,6 C 0,0 km/h (0 Bft)
21.09.2021 21:35 21,5 C 9,7 C 19,1 C 9,4 C 8,7 C 56 % 78 % 67 % 1030,3 hPa 0,0 mm 0,0 km/h (0 Bft) N-NO 22 6,1 C 9,7 C 0,0 km/h (0 Bft)
21.09.2021 21:30 21,5 C 9,8 C 19,1 C 9,5 C 8,9 C 56 % 78 % 67 % 1030,3 hPa 0,0 mm 0,0 km/h (0 Bft) N-NO 22 6,1 C 9,8 C 0,0 km/h (0 Bft)
21.09.2021 21:25 21,6 C 10,0 C 19,1 C 9,7 C 9,0 C 56 % 77 % 67 % 1030,2 hPa 0,0 mm 0,0 km/h (0 Bft) NO 45 6,2 C 10,0 C 0,0 km/h (0 Bft)
21.09.2021 21:20 21,6 C 10,0 C 19,1 C 9,7 C 9,0 C 56 % 77 % 67 % 1030,2 hPa 0,0 mm 0,0 km/h (0 Bft) O-NO 67 6,2 C 10,0 C 0,0 km/h (0 Bft)
21.09.2021 21:15 21,6 C 10,2 C 19,0 C 9,8 C 8,9 C 56 % 77 % 67 % 1030,2 hPa 0,0 mm 0,0 km/h (0 Bft) N 360 6,4 C 10,2 C 0,0 km/h (0 Bft)
21.09.2021 21:10 21,6 C 10,3 C 19,0 C 9,9 C 9,0 C 56 % 77 % 67 % 1030,2 hPa 0,0 mm 0,0 km/h (0 Bft) N 360 6,4 C 10,3 C 0,0 km/h (0 Bft)
21.09.2021 21:05 21,6 C 10,3 C 19,0 C 9,9 C 9,1 C 56 % 76 % 67 % 1030,5 hPa 0,0 mm 0,0 km/h (0 Bft) N 360 6,3 C 10,3 C 0,0 km/h (0 Bft)
21.09.2021 21:00 21,6 C 10,5 C 19,0 C 10,1 C 9,2 C 56 % 76 % 67 % 1030,5 hPa 0,0 mm 0,0 km/h (0 Bft) N 360 6,5 C 10,5 C 0,0 km/h (0 Bft)
21.09.2021 20:55 21,6 C 10,7 C 18,9 C 10,2 C 9,2 C 55 % 75 % 67 % 1030,5 hPa 0,0 mm 0,0 km/h (0 Bft) N 360 6,5 C 10,7 C 0,0 km/h (0 Bft)
21.09.2021 20:50 21,6 C 10,8 C 18,9 C 10,3 C 9,3 C 55 % 75 % 67 % 1030,5 hPa 0,0 mm 0,0 km/h (0 Bft) N 360 6,5 C 10,8 C 0,0 km/h (0 Bft)
21.09.2021 20:45 21,7 C 10,9 C 18,9 C 10,4 C 9,4 C 55 % 74 % 67 % 1030,2 hPa 0,0 mm 0,0 km/h (0 Bft) N 360 6,5 C 10,9 C 0,0 km/h (0 Bft)
21.09.2021 20:40 21,7 C 11,1 C 18,9 C 10,6 C 9,6 C 55 % 74 % 67 % 1030,2 hPa 0,0 mm 0,0 km/h (0 Bft) N 360 6,6 C 11,1 C 0,0 km/h (0 Bft)
21.09.2021 20:35 21,8 C 11,2 C 18,8 C 10,7 C 9,7 C 54 % 73 % 67 % 1030,2 hPa 0,0 mm 0,0 km/h (0 Bft) N 360 6,5 C 11,2 C 0,0 km/h (0 Bft)
21.09.2021 20:30 21,7 C 11,4 C 18,8 C 10,9 C 9,8 C 54 % 73 % 67 % 1030,2 hPa 0,0 mm 0,0 km/h (0 Bft) N 360 6,7 C 11,4 C 0,0 km/h (0 Bft)
21.09.2021 20:25 21,8 C 11,5 C 18,8 C 11,0 C 9,9 C 54 % 72 % 67 % 1029,8 hPa 0,0 mm 0,0 km/h (0 Bft) N 360 6,6 C 11,5 C 0,0 km/h (0 Bft)
21.09.2021 20:20 21,8 C 11,7 C 18,8 C 11,1 C 10,0 C 54 % 72 % 67 % 1029,8 hPa 0,0 mm 0,0 km/h (0 Bft) N 360 6,8 C 11,7 C 0,0 km/h (0 Bft)
21.09.2021 20:15 21,8 C 11,8 C 18,8 C 11,3 C 10,3 C 54 % 71 % 67 % 1029,8 hPa 0,0 mm 0,0 km/h (0 Bft) N 360 6,7 C 11,8 C 0,0 km/h (0 Bft)
21.09.2021 20:10 21,8 C 12,0 C 18,8 C 11,5 C 10,4 C 54 % 71 % 67 % 1029,8 hPa 0,0 mm 0,0 km/h (0 Bft) N-NW 337 6,9 C 12,0 C 0,0 km/h (0 Bft)
21.09.2021 20:05 21,8 C 12,3 C 18,8 C 11,8 C 10,8 C 54 % 70 % 67 % 1030,0 hPa 0,0 mm 0,0 km/h (0 Bft) N 360 7,0 C 12,3 C 0,0 km/h (0 Bft)
21.09.2021 20:00 21,8 C 12,6 C 18,8 C 12,1 C 11,0 C 53 % 69 % 67 % 1030,0 hPa 0,0 mm 0,0 km/h (0 Bft) N-NW 337 7,1 C 12,6 C 0,0 km/h (0 Bft)
21.09.2021 19:55 21,9 C 12,8 C 18,8 C 12,3 C 11,2 C 53 % 68 % 67 % 1030,0 hPa 0,0 mm 0,0 km/h (0 Bft) N-NW 337 7,0 C 12,8 C 0,0 km/h (0 Bft)
21.09.2021 19:50 21,9 C 13,0 C 18,8 C 12,4 C 11,3 C 53 % 68 % 67 % 1030,0 hPa 0,0 mm 0,0 km/h (0 Bft) N-NW 337 7,2 C 13,0 C 0,0 km/h (0 Bft)
21.09.2021 19:45 22,0 C 13,3 C 18,9 C 12,7 C 11,6 C 53 % 67 % 67 % 1029,6 hPa 0,0 mm 0,0 km/h (0 Bft) N 360 7,3 C 13,3 C 0,0 km/h (0 Bft)
21.09.2021 19:40 22,0 C 13,6 C 18,8 C 13,0 C 11,8 C 53 % 67 % 67 % 1029,6 hPa 0,0 mm 0,0 km/h (0 Bft) N 360 7,6 C 13,6 C 0,0 km/h (0 Bft)
21.09.2021 19:35 22,0 C 13,9 C 18,8 C 13,4 C 12,3 C 52 % 66 % 67 % 1029,6 hPa 0,0 mm 0,0 km/h (0 Bft) N 360 7,7 C 13,9 C 0,0 km/h (0 Bft)
21.09.2021 19:30 22,0 C 14,2 C 18,8 C 13,7 C 12,6 C 52 % 65 % 67 % 1029,6 hPa 0,0 mm 0,0 km/h (0 Bft) N 360 7,7 C 14,2 C 0,0 km/h (0 Bft)
21.09.2021 19:25 21,9 C 14,5 C 18,8 C 14,0 C 13,0 C 52 % 64 % 67 % 1029,0 hPa 0,0 mm 0,0 km/h (0 Bft) N 360 7,8 C 14,5 C 0,0 km/h (0 Bft)
21.09.2021 19:20 21,9 C 14,8 C 18,9 C 14,3 C 13,4 C 52 % 64 % 67 % 1029,0 hPa 0,0 mm 0,0 km/h (0 Bft) N 360 8,1 C 14,8 C 0,0 km/h (0 Bft)
21.09.2021 19:15 21,9 C 15,1 C 18,9 C 14,7 C 13,8 C 51 % 63 % 67 % 1029,0 hPa 0,0 mm 0,0 km/h (0 Bft) N-NO 22 8,1 C 15,1 C 0,0 km/h (0 Bft)
21.09.2021 19:10 21,9 C 15,5 C 18,8 C 15,1 C 14,2 C 51 % 62 % 67 % 1029,0 hPa 0,0 mm 0,0 km/h (0 Bft) N-NO 22 8,3 C 15,5 C 0,0 km/h (0 Bft)
21.09.2021 19:05 21,8 C 15,7 C 18,8 C 15,4 C 14,8 C 51 % 60 % 67 % 1028,9 hPa 0,0 mm 0,0 km/h (0 Bft) O-NO 67 8,0 C 15,7 C 0,0 km/h (0 Bft)
21.09.2021 19:00 21,8 C 15,9 C 18,9 C 15,6 C 15,1 C 51 % 59 % 67 % 1028,9 hPa 0,0 mm 0,0 km/h (0 Bft) O-NO 67 7,9 C 15,9 C 0,0 km/h (0 Bft)
21.09.2021 18:55 21,8 C 16,2 C 18,9 C 15,9 C 15,4 C 51 % 59 % 67 % 1028,9 hPa 0,0 mm 0,0 km/h (0 Bft) N-NO 22 8,2 C 16,2 C 0,0 km/h (0 Bft)
21.09.2021 18:50 21,7 C 16,3 C 18,8 C 16,1 C 15,6 C 50 % 58 % 67 % 1028,9 hPa 0,0 mm 0,0 km/h (0 Bft) N-NO 22 8,0 C 16,3 C 0,0 km/h (0 Bft)
21.09.2021 18:45 21,6 C 16,6 C 18,9 C 16,4 C 16,0 C 50 % 57 % 67 % 1029,0 hPa 0,0 mm 0,0 km/h (0 Bft) N-NO 22 8,0 C 16,6 C 0,0 km/h (0 Bft)
21.09.2021 18:40 21,6 C 16,7 C 18,8 C 16,5 C 16,2 C 50 % 57 % 67 % 1029,0 hPa 0,0 mm 0,0 km/h (0 Bft) O-NO 67 8,1 C 16,7 C 0,0 km/h (0 Bft)
21.09.2021 18:35 21,5 C 16,9 C 18,8 C 16,8 C 16,5 C 50 % 57 % 67 % 1029,0 hPa 0,0 mm 0,5 km/h (0 Bft) N-NO 22 8,3 C 16,9 C 0,0 km/h (0 Bft)
21.09.2021 18:30 21,4 C 17,0 C 18,9 C 16,9 C 16,7 C 49 % 56 % 67 % 1029,0 hPa 0,0 mm 0,5 km/h (0 Bft) O-NO 67 8,2 C 17,0 C 0,0 km/h (0 Bft)
21.09.2021 18:25 21,2 C 17,2 C 18,8 C 17,1 C 17,0 C 49 % 56 % 67 % 1028,9 hPa 0,0 mm 0,2 km/h (0 Bft) N 360 8,3 C 17,2 C 0,0 km/h (0 Bft)
21.09.2021 18:20 21,4 C 17,3 C 18,8 C 17,2 C 17,1 C 48 % 56 % 67 % 1028,9 hPa 0,0 mm 0,2 km/h (0 Bft) O-NO 67 8,4 C 17,3 C 0,0 km/h (0 Bft)
21.09.2021 18:15 21,5 C 17,5 C 18,8 C 17,4 C 17,2 C 47 % 56 % 67 % 1028,9 hPa 0,0 mm 0,9 km/h (0 Bft) N 360 8,6 C 17,5 C 0,0 km/h (0 Bft)
21.09.2021 18:10 21,5 C 17,7 C 18,8 C 17,6 C 17,4 C 47 % 55 % 67 % 1028,9 hPa 0,0 mm 2,3 km/h (1 Bft) N-NO 22 8,5 C 17,7 C 0,0 km/h (0 Bft)
21.09.2021 18:05 21,6 C 17,8 C 18,9 C 17,8 C 17,7 C 46 % 54 % 67 % 1028,8 hPa 0,0 mm 4,8 km/h (1 Bft) N-NO 22 8,4 C 17,8 C 4,0 km/h (1 Bft)
21.09.2021 18:00 21,8 C 17,9 C 18,8 C 17,9 C 17,8 C 46 % 54 % 67 % 1028,8 hPa 0,0 mm 4,1 km/h (1 Bft) N-NO 22 8,5 C 17,9 C 3,4 km/h (1 Bft)
21.09.2021 17:55 21,9 C 18,1 C 18,9 C 18,1 C 18,1 C 46 % 54 % 67 % 1028,8 hPa 0,0 mm 2,3 km/h (1 Bft) O-NO 67 8,6 C 18,1 C 1,8 km/h (1 Bft)
21.09.2021 17:50 22,0 C 18,2 C 18,8 C 18,2 C 18,2 C 46 % 53 % 67 % 1028,8 hPa 0,0 mm 3,0 km/h (1 Bft) O 90 8,5 C 18,2 C 3,1 km/h (1 Bft)
21.09.2021 17:45 22,2 C 18,3 C 18,9 C 18,4 C 18,4 C 46 % 52 % 67 % 1029,1 hPa 0,0 mm 3,9 km/h (1 Bft) N-NO 22 8,3 C 18,3 C 2,4 km/h (1 Bft)
21.09.2021 17:40 22,3 C 18,4 C 18,9 C 18,6 C 18,6 C 47 % 52 % 67 % 1029,1 hPa 0,0 mm 3,6 km/h (1 Bft) O-NO 67 8,4 C 18,4 C 5,3 km/h (1 Bft)
21.09.2021 17:35 22,4 C 18,6 C 18,8 C 18,9 C 18,9 C 48 % 51 % 67 % 1029,1 hPa 0,0 mm 2,7 km/h (1 Bft) N-NO 22 8,3 C 18,6 C 3,2 km/h (1 Bft)
21.09.2021 17:30 22,5 C 18,6 C 18,8 C 19,2 C 19,2 C 51 % 51 % 67 % 1029,1 hPa 0,0 mm 4,3 km/h (1 Bft) O-NO 67 8,3 C 18,6 C 0,0 km/h (0 Bft)
21.09.2021 17:25 22,5 C 18,9 C 18,9 C 19,8 C 19,8 C 54 % 50 % 67 % 1029,2 hPa 0,0 mm 4,6 km/h (1 Bft) O-SO 112 8,2 C 18,9 C 3,9 km/h (1 Bft)
21.09.2021 17:20 22,6 C 19,1 C 18,8 C 20,5 C 20,5 C 54 % 50 % 67 % 1029,2 hPa 0,0 mm 2,0 km/h (1 Bft) O-NO 67 8,4 C 19,1 C 3,2 km/h (1 Bft)
21.09.2021 17:15 22,6 C 19,3 C 18,9 C 21,7 C 21,7 C 54 % 50 % 67 % 1029,2 hPa 0,0 mm 0,9 km/h (0 Bft) N-NO 22 8,6 C 19,3 C 3,2 km/h (1 Bft)
21.09.2021 17:10 22,6 C 19,4 C 18,9 C 21,9 C 21,9 C 54 % 50 % 67 % 1029,2 hPa 0,0 mm 1,6 km/h (1 Bft) N 360 8,7 C 19,4 C 0,0 km/h (0 Bft)
21.09.2021 17:05 22,6 C 19,5 C 18,9 C 21,3 C 21,3 C 54 % 49 % 67 % 1029,0 hPa 0,0 mm 3,9 km/h (1 Bft) N 360 8,5 C 19,5 C 0,0 km/h (0 Bft)
21.09.2021 17:00 22,6 C 19,7 C 18,9 C 21,5 C 21,5 C 54 % 49 % 67 % 1029,0 hPa 0,0 mm 4,6 km/h (1 Bft) N-NO 22 8,7 C 19,7 C 3,5 km/h (1 Bft)
21.09.2021 16:55 22,5 C 19,9 C 18,9 C 22,2 C 22,2 C 54 % 49 % 67 % 1029,0 hPa 0,0 mm 2,7 km/h (1 Bft) O 90 8,9 C 19,9 C 1,8 km/h (1 Bft)
21.09.2021 16:50 22,5 C 20,0 C 18,9 C 22,4 C 22,4 C 54 % 48 % 67 % 1029,0 hPa 0,0 mm 1,6 km/h (1 Bft) N-NW 337 8,7 C 20,0 C 4,5 km/h (1 Bft)
21.09.2021 16:45 22,5 C 19,9 C 18,9 C 22,1 C 22,1 C 54 % 49 % 67 % 1029,1 hPa 0,0 mm 2,0 km/h (1 Bft) N-NW 337 8,9 C 19,9 C 0,0 km/h (0 Bft)
21.09.2021 16:40 22,5 C 19,9 C 18,9 C 22,0 C 22,0 C 54 % 48 % 67 % 1029,1 hPa 0,0 mm 2,5 km/h (1 Bft) S-SW 202 8,6 C 19,9 C 2,7 km/h (1 Bft)
21.09.2021 16:35 22,5 C 20,1 C 18,9 C 22,1 C 22,1 C 54 % 47 % 67 % 1029,1 hPa 0,0 mm 3,2 km/h (1 Bft) O-SO 112 8,4 C 20,1 C 0,0 km/h (0 Bft)
21.09.2021 16:30 22,5 C 20,3 C 18,9 C 22,5 C 22,5 C 54 % 48 % 67 % 1029,1 hPa 0,0 mm 3,6 km/h (1 Bft) O-NO 67 8,9 C 20,3 C 4,8 km/h (1 Bft)
21.09.2021 16:25 22,5 C 20,5 C 18,9 C 22,7 C 22,7 C 54 % 46 % 67 % 1028,9 hPa 0,0 mm 2,3 km/h (1 Bft) N 360 8,5 C 20,5 C 4,8 km/h (1 Bft)
21.09.2021 16:20 22,5 C 20,6 C 18,9 C 23,1 C 23,1 C 54 % 46 % 67 % 1028,9 hPa 0,0 mm 1,4 km/h (1 Bft) N 360 8,6 C 20,6 C 2,4 km/h (1 Bft)
21.09.2021 16:15 22,5 C 20,5 C 18,9 C 22,9 C 22,9 C 54 % 47 % 67 % 1028,9 hPa 0,0 mm 1,1 km/h (1 Bft) W 270 8,8 C 20,5 C 0,0 km/h (0 Bft)
21.09.2021 16:10 22,5 C 20,5 C 18,9 C 22,7 C 22,7 C 54 % 46 % 67 % 1028,9 hPa 0,0 mm 1,8 km/h (1 Bft) W 270 8,5 C 20,5 C 0,0 km/h (0 Bft)
21.09.2021 16:05 22,4 C 20,5 C 18,9 C 23,2 C 23,2 C 55 % 46 % 67 % 1029,2 hPa 0,0 mm 1,8 km/h (1 Bft) SW 225 8,5 C 20,5 C 0,0 km/h (0 Bft)
21.09.2021 16:00 22,4 C 20,7 C 18,9 C 23,4 C 23,4 C 55 % 46 % 67 % 1029,2 hPa 0,0 mm 2,3 km/h (1 Bft) N-NW 337 8,7 C 20,7 C 3,4 km/h (1 Bft)
21.09.2021 15:55 22,4 C 20,5 C 18,9 C 23,4 C 23,4 C 55 % 46 % 67 % 1029,2 hPa 0,0 mm 3,0 km/h (1 Bft) SW 225 8,5 C 20,5 C 2,9 km/h (1 Bft)
21.09.2021 15:50 22,2 C 20,4 C 18,9 C 23,7 C 23,7 C 55 % 47 % 67 % 1029,2 hPa 0,0 mm 3,2 km/h (1 Bft) SW 225 8,7 C 20,4 C 2,6 km/h (1 Bft)
21.09.2021 15:45 22,2 C 20,3 C 18,9 C 23,5 C 23,5 C 55 % 45 % 67 % 1029,2 hPa 0,0 mm 4,1 km/h (1 Bft) NW 315 8,0 C 20,3 C 4,2 km/h (1 Bft)
21.09.2021 15:40 22,3 C 20,3 C 18,9 C 23,2 C 23,2 C 55 % 46 % 67 % 1029,2 hPa 0,0 mm 3,9 km/h (1 Bft) N-NO 22 8,3 C 20,3 C 6,6 km/h (2 Bft)
21.09.2021 15:35 22,3 C 20,3 C 18,9 C 22,9 C 22,9 C 55 % 46 % 67 % 1029,2 hPa 0,0 mm 4,8 km/h (1 Bft) NO 45 8,3 C 20,3 C 4,0 km/h (1 Bft)
21.09.2021 15:30 22,2 C 20,3 C 18,9 C 23,0 C 23,0 C 55 % 46 % 67 % 1029,2 hPa 0,0 mm 5,7 km/h (1 Bft) O-NO 67 8,3 C 20,3 C 5,5 km/h (1 Bft)
21.09.2021 15:25 22,3 C 20,5 C 18,9 C 23,1 C 23,1 C 55 % 46 % 67 % 1029,4 hPa 0,0 mm 5,0 km/h (1 Bft) N-NO 22 8,5 C 20,5 C 3,5 km/h (1 Bft)
21.09.2021 15:20 22,3 C 20,4 C 18,9 C 23,3 C 23,3 C 55 % 45 % 67 % 1029,4 hPa 0,0 mm 4,6 km/h (1 Bft) N 360 8,1 C 20,4 C 9,0 km/h (2 Bft)
21.09.2021 15:15 22,3 C 20,5 C 18,9 C 22,9 C 22,9 C 55 % 47 % 67 % 1029,4 hPa 0,0 mm 4,3 km/h (1 Bft) N 360 8,8 C 20,5 C 0,0 km/h (0 Bft)
21.09.2021 15:10 22,2 C 20,5 C 18,9 C 22,9 C 22,9 C 55 % 47 % 67 % 1029,4 hPa 0,0 mm 5,0 km/h (1 Bft) O 90 8,8 C 20,5 C 6,4 km/h (2 Bft)
21.09.2021 15:05 22,3 C 20,8 C 18,9 C 23,7 C 23,7 C 55 % 47 % 67 % 1029,4 hPa 0,0 mm 3,4 km/h (1 Bft) O 90 9,1 C 20,8 C 10,1 km/h (2 Bft)
21.09.2021 15:00 22,2 C 21,0 C 18,9 C 24,0 C 24,0 C 55 % 46 % 67 % 1029,4 hPa 0,0 mm 1,4 km/h (1 Bft) NO 45 8,9 C 21,0 C 7,9 km/h (2 Bft)
21.09.2021 14:55 22,2 C 21,0 C 18,9 C 24,1 C 24,1 C 55 % 47 % 67 % 1029,4 hPa 0,0 mm 0,7 km/h (0 Bft) N-NW 337 9,3 C 21,0 C 0,0 km/h (0 Bft)
21.09.2021 14:50 22,2 C 21,0 C 18,9 C 24,0 C 24,0 C 55 % 46 % 67 % 1029,4 hPa 0,0 mm 0,9 km/h (0 Bft) S-SO 157 8,9 C 21,0 C 1,8 km/h (1 Bft)
21.09.2021 14:45 22,2 C 20,9 C 18,9 C 23,9 C 23,9 C 55 % 46 % 67 % 1029,5 hPa 0,0 mm 3,4 km/h (1 Bft) O-NO 67 8,8 C 20,9 C 1,9 km/h (1 Bft)
21.09.2021 14:40 22,1 C 20,9 C 18,9 C 23,7 C 23,7 C 55 % 46 % 67 % 1029,5 hPa 0,0 mm 5,0 km/h (1 Bft) O-NO 67 8,8 C 20,9 C 0,0 km/h (0 Bft)
21.09.2021 14:35 22,1 C 20,9 C 18,9 C 24,0 C 24,0 C 55 % 46 % 67 % 1029,5 hPa 0,0 mm 3,6 km/h (1 Bft) N-NO 22 8,8 C 20,9 C 3,7 km/h (1 Bft)
21.09.2021 14:30 22,1 C 21,0 C 18,9 C 23,9 C 23,9 C 55 % 46 % 67 % 1029,5 hPa 0,0 mm 3,4 km/h (1 Bft) O-NO 67 8,9 C 21,0 C 4,8 km/h (1 Bft)
21.09.2021 14:25 22,1 C 20,7 C 18,9 C 23,0 C 23,0 C 55 % 45 % 67 % 1029,7 hPa 0,0 mm 6,1 km/h (2 Bft) NW 315 8,3 C 20,7 C 17,5 km/h (3 Bft)
21.09.2021 14:20 22,1 C 20,7 C 18,9 C 23,3 C 23,3 C 55 % 46 % 67 % 1029,7 hPa 0,0 mm 6,1 km/h (2 Bft) S-SW 202 8,7 C 20,7 C 4,8 km/h (1 Bft)
21.09.2021 14:15 22,0 C 21,1 C 18,9 C 24,4 C 24,4 C 55 % 47 % 67 % 1029,7 hPa 0,0 mm 2,5 km/h (1 Bft) N 360 9,3 C 21,1 C 4,7 km/h (1 Bft)
21.09.2021 14:10 22,0 C 20,9 C 18,9 C 24,3 C 24,3 C 55 % 49 % 67 % 1029,7 hPa 0,0 mm 1,8 km/h (1 Bft) N 360 9,8 C 20,9 C 3,2 km/h (1 Bft)
21.09.2021 14:05 22,0 C 20,5 C 18,9 C 23,2 C 23,2 C 55 % 47 % 67 % 1029,5 hPa 0,0 mm 4,1 km/h (1 Bft) O 90 8,8 C 20,5 C 0,0 km/h (0 Bft)
21.09.2021 14:00 22,0 C 20,5 C 18,9 C 22,9 C 22,9 C 55 % 45 % 67 % 1029,5 hPa 0,0 mm 4,1 km/h (1 Bft) NO 45 8,2 C 20,5 C 2,1 km/h (1 Bft)
21.09.2021 13:55 22,0 C 20,7 C 18,9 C 23,2 C 23,2 C 55 % 47 % 67 % 1029,5 hPa 0,0 mm 2,0 km/h (1 Bft) N-NO 22 9,0 C 20,7 C 2,9 km/h (1 Bft)
21.09.2021 13:50 21,9 C 20,7 C 18,9 C 23,0 C 23,0 C 55 % 46 % 67 % 1029,5 hPa 0,0 mm 2,3 km/h (1 Bft) W 270 8,7 C 20,7 C 0,0 km/h (0 Bft)
21.09.2021 13:45 21,9 C 20,9 C 18,9 C 23,5 C 23,5 C 55 % 46 % 67 % 1029,7 hPa 0,0 mm 1,4 km/h (1 Bft) N-NW 337 8,8 C 20,9 C 1,8 km/h (1 Bft)
21.09.2021 13:40 21,9 C 20,8 C 19,0 C 23,2 C 23,2 C 55 % 47 % 67 % 1029,7 hPa 0,0 mm 0,9 km/h (0 Bft) SO 135 9,1 C 20,8 C 0,0 km/h (0 Bft)
21.09.2021 13:35 21,8 C 20,8 C 18,9 C 22,6 C 22,6 C 55 % 46 % 67 % 1029,7 hPa 0,0 mm 2,0 km/h (1 Bft) W-SW 247 8,8 C 20,8 C 2,6 km/h (1 Bft)
21.09.2021 13:30 21,8 C 20,7 C 19,0 C 22,8 C 22,8 C 55 % 45 % 67 % 1029,7 hPa 0,0 mm 3,0 km/h (1 Bft) SW 225 8,3 C 20,7 C 2,6 km/h (1 Bft)
21.09.2021 13:25 21,8 C 20,8 C 19,0 C 22,9 C 22,9 C 55 % 46 % 67 % 1029,6 hPa 0,0 mm 3,2 km/h (1 Bft) W 270 8,8 C 20,8 C 3,2 km/h (1 Bft)
21.09.2021 13:20 21,8 C 21,0 C 19,0 C 22,9 C 22,9 C 55 % 45 % 67 % 1029,6 hPa 0,0 mm 3,2 km/h (1 Bft) SO 135 8,6 C 21,0 C 3,1 km/h (1 Bft)
21.09.2021 13:15 21,8 C 21,0 C 19,0 C 23,4 C 23,4 C 56 % 46 % 67 % 1029,6 hPa 0,0 mm 3,0 km/h (1 Bft) O-NO 67 8,9 C 21,0 C 0,0 km/h (0 Bft)
21.09.2021 13:10 21,8 C 21,0 C 19,0 C 23,1 C 23,1 C 55 % 48 % 67 % 1029,6 hPa 0,0 mm 3,2 km/h (1 Bft) S 180 9,6 C 21,0 C 5,3 km/h (1 Bft)
21.09.2021 13:05 21,7 C 20,7 C 19,0 C 22,7 C 22,7 C 55 % 47 % 67 % 1029,6 hPa 0,0 mm 3,2 km/h (1 Bft) W 270 9,0 C 20,7 C 0,0 km/h (0 Bft)
21.09.2021 13:00 21,7 C 20,5 C 19,0 C 22,5 C 22,5 C 55 % 46 % 67 % 1029,6 hPa 0,0 mm 3,2 km/h (1 Bft) W-SW 247 8,5 C 20,5 C 1,8 km/h (1 Bft)
21.09.2021 12:55 21,7 C 20,4 C 19,0 C 22,8 C 22,8 C 56 % 47 % 67 % 1029,6 hPa 0,0 mm 2,5 km/h (1 Bft) SO 135 8,7 C 20,4 C 4,0 km/h (1 Bft)
21.09.2021 12:50 21,7 C 20,4 C 19,0 C 22,8 C 22,8 C 56 % 46 % 67 % 1029,6 hPa 0,0 mm 2,3 km/h (1 Bft) O 90 8,4 C 20,4 C 3,5 km/h (1 Bft)
21.09.2021 12:45 21,6 C 20,3 C 19,0 C 22,7 C 22,7 C 56 % 47 % 67 % 1029,8 hPa 0,0 mm 2,0 km/h (1 Bft) N-NW 337 8,6 C 20,3 C 0,0 km/h (0 Bft)
21.09.2021 12:40 21,6 C 20,3 C 19,0 C 22,7 C 22,7 C 56 % 47 % 67 % 1029,8 hPa 0,0 mm 3,0 km/h (1 Bft) N-NW 337 8,6 C 20,3 C 0,0 km/h (0 Bft)
21.09.2021 12:35 21,6 C 20,4 C 19,0 C 22,3 C 22,3 C 56 % 46 % 67 % 1029,8 hPa 0,0 mm 4,3 km/h (1 Bft) NW 315 8,4 C 20,4 C 8,4 km/h (2 Bft)
21.09.2021 12:30 21,6 C 20,4 C 19,0 C 22,7 C 22,7 C 56 % 47 % 67 % 1029,8 hPa 0,0 mm 3,2 km/h (1 Bft) S 180 8,7 C 20,4 C 4,7 km/h (1 Bft)
21.09.2021 12:25 21,6 C 20,3 C 19,0 C 22,9 C 22,9 C 56 % 48 % 67 % 1029,4 hPa 0,0 mm 1,1 km/h (1 Bft) SW 225 8,9 C 20,3 C 0,0 km/h (0 Bft)
21.09.2021 12:20 21,5 C 20,3 C 19,0 C 22,6 C 22,6 C 56 % 48 % 67 % 1029,4 hPa 0,0 mm 1,8 km/h (1 Bft) W-SW 247 8,9 C 20,3 C 2,3 km/h (1 Bft)
21.09.2021 12:15 21,5 C 20,1 C 19,0 C 22,3 C 22,3 C 56 % 49 % 67 % 1029,4 hPa 0,0 mm 2,3 km/h (1 Bft) W-SW 247 9,0 C 20,1 C 2,1 km/h (1 Bft)
21.09.2021 12:10 21,4 C 20,1 C 19,0 C 22,5 C 22,5 C 56 % 49 % 67 % 1029,4 hPa 0,0 mm 2,3 km/h (1 Bft) S 180 9,0 C 20,1 C 1,6 km/h (1 Bft)
21.09.2021 12:05 21,4 C 20,0 C 19,0 C 22,0 C 22,0 C 56 % 49 % 67 % 1029,2 hPa 0,0 mm 2,3 km/h (1 Bft) O-NO 67 9,0 C 20,0 C 5,3 km/h (1 Bft)
21.09.2021 12:00 21,4 C 20,0 C 19,0 C 22,0 C 22,0 C 56 % 50 % 67 % 1029,2 hPa 0,0 mm 2,7 km/h (1 Bft) S 180 9,3 C 20,0 C 1,9 km/h (1 Bft)
21.09.2021 11:55 21,4 C 19,9 C 19,0 C 21,7 C 21,7 C 56 % 50 % 67 % 1029,2 hPa 0,0 mm 3,0 km/h (1 Bft) S-SW 202 9,2 C 19,9 C 0,0 km/h (0 Bft)
21.09.2021 11:50 21,2 C 19,9 C 19,1 C 22,3 C 22,3 C 56 % 51 % 67 % 1029,2 hPa 0,0 mm 1,8 km/h (1 Bft) S-SO 157 9,5 C 19,9 C 3,2 km/h (1 Bft)
21.09.2021 11:45 21,3 C 19,8 C 19,1 C 22,1 C 22,1 C 56 % 53 % 67 % 1029,4 hPa 0,0 mm 1,8 km/h (1 Bft) NO 45 9,9 C 19,8 C 3,7 km/h (1 Bft)
21.09.2021 11:40 21,2 C 19,6 C 19,1 C 21,7 C 21,7 C 56 % 52 % 67 % 1029,4 hPa 0,0 mm 1,6 km/h (1 Bft) N 360 9,5 C 19,6 C 0,0 km/h (0 Bft)
21.09.2021 11:35 21,2 C 19,4 C 19,0 C 21,5 C 21,5 C 56 % 54 % 67 % 1029,4 hPa 0,0 mm 2,0 km/h (1 Bft) O-NO 67 9,8 C 19,4 C 4,3 km/h (1 Bft)
21.09.2021 11:30 21,2 C 19,2 C 19,1 C 21,0 C 21,0 C 56 % 54 % 67 % 1029,4 hPa 0,0 mm 3,2 km/h (1 Bft) O 90 9,7 C 19,2 C 2,7 km/h (1 Bft)
21.09.2021 11:25 21,1 C 19,1 C 19,1 C 20,9 C 20,9 C 56 % 53 % 67 % 1029,2 hPa 0,0 mm 2,5 km/h (1 Bft) S 180 9,3 C 19,1 C 3,7 km/h (1 Bft)
21.09.2021 11:20 21,2 C 19,2 C 19,1 C 21,3 C 21,3 C 56 % 53 % 67 % 1029,2 hPa 0,0 mm 1,4 km/h (1 Bft) W-SW 247 9,4 C 19,2 C 1,8 km/h (1 Bft)
21.09.2021 11:15 21,1 C 19,2 C 19,1 C 21,0 C 21,0 C 56 % 55 % 67 % 1029,2 hPa 0,0 mm 1,6 km/h (1 Bft) S-SO 157 9,9 C 19,2 C 0,0 km/h (0 Bft)
21.09.2021 11:10 21,0 C 19,1 C 19,1 C 21,0 C 21,0 C 56 % 55 % 67 % 1029,2 hPa 0,0 mm 1,8 km/h (1 Bft) S-SW 202 9,8 C 19,1 C 2,3 km/h (1 Bft)
21.09.2021 11:05 21,0 C 18,9 C 19,1 C 21,1 C 21,1 C 56 % 57 % 66 % 1029,2 hPa 0,0 mm 1,6 km/h (1 Bft) S-SW 202 10,2 C 18,9 C 2,9 km/h (1 Bft)
21.09.2021 11:00 21,0 C 18,9 C 19,1 C 21,0 C 21,0 C 56 % 57 % 67 % 1029,2 hPa 0,0 mm 2,3 km/h (1 Bft) SW 225 10,2 C 18,9 C 0,0 km/h (0 Bft)
21.09.2021 10:55 21,0 C 19,1 C 19,1 C 21,1 C 21,1 C 56 % 57 % 67 % 1029,2 hPa 0,0 mm 1,8 km/h (1 Bft) N 360 10,4 C 19,1 C 3,2 km/h (1 Bft)
21.09.2021 10:50 20,9 C 19,2 C 19,1 C 21,2 C 21,2 C 57 % 59 % 67 % 1029,2 hPa 0,0 mm 1,4 km/h (1 Bft) NO 45 11,0 C 19,2 C 4,0 km/h (1 Bft)
21.09.2021 10:45 20,8 C 18,8 C 19,1 C 21,0 C 21,0 C 57 % 62 % 67 % 1028,9 hPa 0,0 mm 0,9 km/h (0 Bft) SO 135 11,4 C 18,8 C 0,0 km/h (0 Bft)
21.09.2021 10:40 20,8 C 18,6 C 19,1 C 20,8 C 20,8 C 57 % 63 % 67 % 1028,9 hPa 0,0 mm 1,1 km/h (1 Bft) O-NO 67 11,4 C 18,6 C 0,0 km/h (0 Bft)
21.09.2021 10:35 20,8 C 18,1 C 19,1 C 20,3 C 20,3 C 57 % 64 % 67 % 1028,9 hPa 0,0 mm 1,4 km/h (1 Bft) N-NO 22 11,2 C 18,1 C 1,9 km/h (1 Bft)
21.09.2021 10:30 20,8 C 18,1 C 19,1 C 20,3 C 20,3 C 57 % 63 % 67 % 1028,9 hPa 0,0 mm 1,4 km/h (1 Bft) S-SO 157 10,9 C 18,1 C 2,7 km/h (1 Bft)
21.09.2021 10:25 20,7 C 17,9 C 19,1 C 20,2 C 20,2 C 56 % 66 % 67 % 1028,6 hPa 0,0 mm 0,9 km/h (0 Bft) S-SO 157 11,5 C 17,9 C 0,0 km/h (0 Bft)
21.09.2021 10:20 20,6 C 17,9 C 19,1 C 20,2 C 20,2 C 56 % 67 % 67 % 1028,6 hPa 0,0 mm 0,9 km/h (0 Bft) S 180 11,7 C 17,9 C 3,1 km/h (1 Bft)
21.09.2021 10:15 20,6 C 17,5 C 19,1 C 20,0 C 20,0 C 56 % 71 % 67 % 1028,6 hPa 0,0 mm 0,7 km/h (0 Bft) O-SO 112 12,2 C 17,5 C 0,0 km/h (0 Bft)
21.09.2021 10:10 20,5 C 17,3 C 19,1 C 19,5 C 19,5 C 56 % 72 % 67 % 1028,6 hPa 0,0 mm 0,7 km/h (0 Bft) O 90 12,2 C 17,3 C 0,0 km/h (0 Bft)
21.09.2021 10:05 20,4 C 17,2 C 19,1 C 19,2 C 19,2 C 56 % 69 % 67 % 1028,5 hPa 0,0 mm 0,5 km/h (0 Bft) N-NO 22 11,5 C 17,2 C 3,2 km/h (1 Bft)
21.09.2021 10:00 20,4 C 17,1 C 19,1 C 18,8 C 18,8 C 56 % 75 % 67 % 1028,5 hPa 0,0 mm 0,0 km/h (0 Bft) N-NO 22 12,6 C 17,1 C 0,0 km/h (0 Bft)
21.09.2021 09:55 20,2 C 16,6 C 19,1 C 18,3 C 18,3 C 56 % 76 % 67 % 1028,5 hPa 0,0 mm 0,7 km/h (0 Bft) SW 225 12,3 C 16,6 C 0,0 km/h (0 Bft)
21.09.2021 09:50 20,2 C 16,3 C 19,1 C 17,9 C 17,9 C 56 % 77 % 67 % 1028,5 hPa 0,0 mm 0,7 km/h (0 Bft) O-NO 67 12,3 C 16,3 C 2,1 km/h (1 Bft)
21.09.2021 09:45 20,1 C 15,8 C 19,1 C 17,6 C 17,6 C 56 % 80 % 67 % 1028,2 hPa 0,0 mm 0,2 km/h (0 Bft) O-NO 67 12,4 C 15,8 C 2,3 km/h (1 Bft)
21.09.2021 09:40 20,0 C 15,5 C 19,2 C 17,2 C 17,2 C 57 % 81 % 67 % 1028,2 hPa 0,0 mm 0,0 km/h (0 Bft) NW 315 12,3 C 15,5 C 0,0 km/h (0 Bft)
21.09.2021 09:35 19,9 C 14,9 C 19,2 C 16,6 C 16,6 C 57 % 82 % 67 % 1028,2 hPa 0,0 mm 0,7 km/h (0 Bft) O-NO 67 11,9 C 14,9 C 0,0 km/h (0 Bft)
21.09.2021 09:30 19,8 C 14,3 C 19,2 C 16,2 C 16,2 C 57 % 83 % 67 % 1028,2 hPa 0,0 mm 1,1 km/h (1 Bft) O-NO 67 11,5 C 14,3 C 0,0 km/h (0 Bft)
21.09.2021 09:25 19,7 C 13,9 C 19,2 C 15,7 C 15,7 C 57 % 83 % 67 % 1027,9 hPa 0,0 mm 0,9 km/h (0 Bft) N 360 11,1 C 13,9 C 2,7 km/h (1 Bft)
21.09.2021 09:20 19,6 C 13,4 C 19,2 C 15,2 C 15,2 C 57 % 84 % 67 % 1027,9 hPa 0,0 mm 0,0 km/h (0 Bft) O 90 10,8 C 13,4 C 2,3 km/h (1 Bft)
21.09.2021 09:15 19,4 C 12,9 C 19,2 C 15,0 C 15,0 C 57 % 85 % 67 % 1027,9 hPa 0,0 mm 0,2 km/h (0 Bft) O-NO 67 10,4 C 12,9 C 0,0 km/h (0 Bft)
21.09.2021 09:10 19,2 C 12,7 C 19,2 C 15,0 C 15,0 C 58 % 86 % 66 % 1027,9 hPa 0,0 mm 0,2 km/h (0 Bft) N-NO 22 10,4 C 12,7 C 0,0 km/h (0 Bft)
21.09.2021 09:05 19,0 C 12,0 C 19,2 C 14,1 C 14,1 C 58 % 87 % 66 % 1027,1 hPa 0,0 mm 0,0 km/h (0 Bft) NO 45 9,9 C 12,0 C 0,0 km/h (0 Bft)
21.09.2021 09:00 18,9 C 11,4 C 19,3 C 13,3 C 13,3 C 58 % 87 % 66 % 1027,1 hPa 0,0 mm 0,0 km/h (0 Bft) O-NO 67 9,3 C 11,4 C 0,0 km/h (0 Bft)
21.09.2021 08:55 18,6 C 10,7 C 19,3 C 12,4 C 12,4 C 58 % 86 % 66 % 1027,1 hPa 0,0 mm 0,5 km/h (0 Bft) O-NO 67 8,5 C 10,7 C 0,0 km/h (0 Bft)
21.09.2021 08:50 18,4 C 10,3 C 19,3 C 12,1 C 12,1 C 58 % 86 % 67 % 1027,1 hPa 0,0 mm 0,9 km/h (0 Bft) NO 45 8,1 C 10,3 C 0,0 km/h (0 Bft)
21.09.2021 08:45 18,4 C 9,9 C 19,3 C 11,7 C 11,7 C 56 % 85 % 67 % 1026,9 hPa 0,0 mm 0,9 km/h (0 Bft) O-SO 112 7,5 C 9,9 C 2,4 km/h (1 Bft)
21.09.2021 08:40 18,5 C 9,7 C 19,3 C 11,2 C 11,2 C 55 % 85 % 67 % 1026,9 hPa 0,0 mm 0,5 km/h (0 Bft) O-NO 67 7,3 C 9,7 C 2,7 km/h (1 Bft)
21.09.2021 08:35 18,9 C 9,5 C 19,3 C 10,0 C 10,0 C 54 % 85 % 67 % 1026,9 hPa 0,0 mm 0,0 km/h (0 Bft) O 90 7,1 C 9,5 C 0,0 km/h (0 Bft)
21.09.2021 08:30 19,1 C 9,4 C 19,4 C 9,3 C 9,0 C 54 % 85 % 67 % 1026,9 hPa 0,0 mm 0,0 km/h (0 Bft) N-NW 337 7,0 C 9,4 C 0,0 km/h (0 Bft)
21.09.2021 08:25 19,5 C 9,4 C 19,4 C 9,1 C 8,6 C 54 % 84 % 67 % 1027,5 hPa 0,0 mm 0,0 km/h (0 Bft) N-NW 337 6,8 C 9,4 C 0,0 km/h (0 Bft)
21.09.2021 08:20 19,6 C 9,3 C 19,4 C 9,0 C 8,4 C 54 % 84 % 67 % 1027,5 hPa 0,0 mm 0,0 km/h (0 Bft) N 360 6,7 C 9,3 C 0,0 km/h (0 Bft)
21.09.2021 08:15 20,0 C 9,3 C 19,4 C 9,0 C 8,4 C 53 % 84 % 67 % 1027,5 hPa 0,0 mm 0,0 km/h (0 Bft) N 360 6,7 C 9,3 C 0,0 km/h (0 Bft)
21.09.2021 08:10 20,4 C 9,3 C 19,4 C 9,0 C 8,4 C 52 % 84 % 67 % 1027,5 hPa 0,0 mm 0,0 km/h (0 Bft) N 360 6,7 C 9,3 C 0,0 km/h (0 Bft)
21.09.2021 08:05 20,9 C 9,3 C 19,4 C 8,9 C 8,1 C 53 % 84 % 66 % 1027,6 hPa 0,0 mm 0,5 km/h (0 Bft) N 360 6,7 C 9,3 C 0,0 km/h (0 Bft)
21.09.2021 08:00 21,0 C 9,4 C 19,5 C 9,0 C 8,1 C 57 % 83 % 66 % 1027,6 hPa 0,0 mm 0,5 km/h (0 Bft) NW 315 6,7 C 9,4 C 0,0 km/h (0 Bft)
21.09.2021 07:55 21,0 C 9,4 C 19,5 C 8,9 C 8,0 C 58 % 83 % 66 % 1027,6 hPa 0,0 mm 0,2 km/h (0 Bft) N-NW 337 6,7 C 9,4 C 2,6 km/h (1 Bft)
21.09.2021 07:50 21,0 C 9,5 C 19,5 C 9,0 C 8,0 C 58 % 82 % 66 % 1027,6 hPa 0,0 mm 0,0 km/h (0 Bft) O-SO 112 6,6 C 9,5 C 0,0 km/h (0 Bft)
21.09.2021 07:45 21,1 C 9,5 C 19,5 C 9,0 C 8,1 C 58 % 82 % 66 % 1027,6 hPa 0,0 mm 0,0 km/h (0 Bft) O 90 6,6 C 9,5 C 0,0 km/h (0 Bft)
21.09.2021 07:40 21,1 C 9,7 C 19,5 C 9,2 C 8,1 C 58 % 81 % 66 % 1027,6 hPa 0,0 mm 0,0 km/h (0 Bft) O-NO 67 6,6 C 9,7 C 0,0 km/h (0 Bft)
21.09.2021 07:35 21,1 C 9,9 C 19,5 C 9,4 C 8,5 C 58 % 82 % 66 % 1027,6 hPa 0,0 mm 0,0 km/h (0 Bft) NO 45 7,0 C 9,9 C 0,0 km/h (0 Bft)
21.09.2021 07:30 21,1 C 10,1 C 19,6 C 9,7 C 8,8 C 58 % 82 % 66 % 1027,6 hPa 0,0 mm 0,0 km/h (0 Bft) O-NO 67 7,2 C 10,1 C 0,0 km/h (0 Bft)
21.09.2021 07:25 21,1 C 10,3 C 19,6 C 10,0 C 9,3 C 58 % 82 % 66 % 1027,6 hPa 0,0 mm 0,0 km/h (0 Bft) N-NO 22 7,4 C 10,3 C 0,0 km/h (0 Bft)
21.09.2021 07:20 21,1 C 10,4 C 19,7 C 10,1 C 9,6 C 58 % 82 % 66 % 1027,6 hPa 0,0 mm 0,0 km/h (0 Bft) N-NO 22 7,5 C 10,4 C 0,0 km/h (0 Bft)
21.09.2021 07:15 21,1 C 10,6 C 19,7 C 10,4 C 9,9 C 58 % 82 % 66 % 1027,6 hPa 0,0 mm 0,0 km/h (0 Bft) N 360 7,7 C 10,6 C 0,0 km/h (0 Bft)
21.09.2021 07:10 21,1 C 10,7 C 19,7 C 10,5 C 10,0 C 58 % 82 % 66 % 1027,6 hPa 0,0 mm 0,2 km/h (0 Bft) N-NW 337 7,8 C 10,7 C 0,0 km/h (0 Bft)
21.09.2021 07:05 21,1 C 10,8 C 19,7 C 10,6 C 10,2 C 58 % 82 % 66 % 1027,4 hPa 0,0 mm 0,5 km/h (0 Bft) N 360 7,9 C 10,8 C 0,0 km/h (0 Bft)
21.09.2021 07:00 21,1 C 10,8 C 19,7 C 10,6 C 10,3 C 58 % 82 % 66 % 1027,4 hPa 0,0 mm 0,2 km/h (0 Bft) O 90 7,9 C 10,8 C 0,0 km/h (0 Bft)
21.09.2021 06:55 21,1 C 10,9 C 19,7 C 10,8 C 10,5 C 58 % 82 % 66 % 1027,4 hPa 0,0 mm 0,2 km/h (0 Bft) N 360 7,9 C 10,9 C 0,0 km/h (0 Bft)
21.09.2021 06:50 21,1 C 10,9 C 19,7 C 10,8 C 10,5 C 58 % 82 % 66 % 1027,4 hPa 0,0 mm 0,2 km/h (0 Bft) N 360 7,9 C 10,9 C 0,0 km/h (0 Bft)
21.09.2021 06:45 21,1 C 11,0 C 19,7 C 10,9 C 10,6 C 58 % 82 % 66 % 1026,9 hPa 0,0 mm 0,2 km/h (0 Bft) N-NO 22 8,0 C 11,0 C 0,0 km/h (0 Bft)
21.09.2021 06:40 21,1 C 11,0 C 19,7 C 10,9 C 10,6 C 58 % 82 % 66 % 1026,9 hPa 0,0 mm 0,2 km/h (0 Bft) N 360 8,0 C 11,0 C 0,0 km/h (0 Bft)
21.09.2021 06:35 21,2 C 11,0 C 19,7 C 10,9 C 10,6 C 58 % 82 % 66 % 1026,9 hPa 0,0 mm 0,0 km/h (0 Bft) N 360 8,0 C 11,0 C 0,0 km/h (0 Bft)
21.09.2021 06:30 21,2 C 11,0 C 19,7 C 10,9 C 10,6 C 58 % 82 % 66 % 1026,9 hPa 0,0 mm 0,0 km/h (0 Bft) O 90 8,0 C 11,0 C 0,0 km/h (0 Bft)
21.09.2021 06:25 21,1 C 11,1 C 19,7 C 11,0 C 10,7 C 58 % 82 % 66 % 1026,7 hPa 0,0 mm 0,0 km/h (0 Bft) NO 45 8,1 C 11,1 C 0,0 km/h (0 Bft)
21.09.2021 06:20 21,2 C 11,1 C 19,7 C 11,0 C 10,8 C 58 % 82 % 66 % 1026,7 hPa 0,0 mm 0,0 km/h (0 Bft) N-NO 22 8,1 C 11,1 C 0,0 km/h (0 Bft)
21.09.2021 06:15 21,2 C 11,1 C 19,7 C 11,0 C 10,8 C 58 % 82 % 66 % 1026,7 hPa 0,0 mm 0,0 km/h (0 Bft) N 360 8,1 C 11,1 C 0,0 km/h (0 Bft)
21.09.2021 06:10 21,2 C 11,1 C 19,7 C 11,0 C 10,9 C 58 % 82 % 66 % 1026,7 hPa 0,0 mm 0,0 km/h (0 Bft) N 360 8,1 C 11,1 C 0,0 km/h (0 Bft)
21.09.2021 06:05 21,2 C 11,1 C 19,7 C 11,0 C 10,9 C 58 % 82 % 66 % 1026,4 hPa 0,0 mm 0,5 km/h (0 Bft) N 360 8,1 C 11,1 C 0,0 km/h (0 Bft)
21.09.2021 06:00 21,2 C 11,1 C 19,7 C 11,0 C 10,9 C 58 % 82 % 66 % 1026,4 hPa 0,0 mm 0,7 km/h (0 Bft) N-NO 22 8,1 C 11,1 C 0,0 km/h (0 Bft)
21.09.2021 05:55 21,2 C 11,1 C 19,7 C 11,0 C 10,9 C 58 % 82 % 66 % 1026,4 hPa 0,0 mm 0,5 km/h (0 Bft) N 360 8,1 C 11,1 C 2,4 km/h (1 Bft)
21.09.2021 05:50 21,2 C 11,1 C 19,7 C 11,0 C 10,9 C 58 % 82 % 66 % 1026,4 hPa 0,0 mm 0,5 km/h (0 Bft) N 360 8,1 C 11,1 C 0,0 km/h (0 Bft)
21.09.2021 05:45 21,2 C 11,1 C 19,7 C 11,0 C 10,8 C 58 % 82 % 66 % 1026,2 hPa 0,0 mm 0,0 km/h (0 Bft) N 360 8,1 C 11,1 C 0,0 km/h (0 Bft)
21.09.2021 05:40 21,2 C 11,1 C 19,7 C 11,0 C 10,8 C 58 % 82 % 66 % 1026,2 hPa 0,0 mm 0,0 km/h (0 Bft) N 360 8,1 C 11,1 C 1,6 km/h (1 Bft)
21.09.2021 05:35 21,2 C 11,1 C 19,7 C 11,0 C 10,8 C 58 % 81 % 66 % 1026,2 hPa 0,0 mm 0,0 km/h (0 Bft) N 360 8,0 C 11,1 C 0,0 km/h (0 Bft)
21.09.2021 05:30 21,2 C 11,1 C 19,7 C 11,0 C 10,7 C 58 % 81 % 66 % 1026,2 hPa 0,0 mm 0,0 km/h (0 Bft) N 360 8,0 C 11,1 C 0,0 km/h (0 Bft)
21.09.2021 05:25 21,2 C 11,1 C 19,7 C 11,0 C 10,7 C 58 % 80 % 66 % 1025,8 hPa 0,0 mm 0,0 km/h (0 Bft) N 360 7,8 C 11,1 C 0,0 km/h (0 Bft)
21.09.2021 05:20 21,2 C 11,1 C 19,7 C 11,0 C 10,7 C 58 % 80 % 66 % 1025,8 hPa 0,0 mm 0,0 km/h (0 Bft) N 360 7,8 C 11,1 C 0,0 km/h (0 Bft)
21.09.2021 05:15 21,2 C 11,2 C 19,7 C 11,1 C 10,8 C 58 % 80 % 66 % 1025,8 hPa 0,0 mm 0,0 km/h (0 Bft) O-NO 67 7,9 C 11,2 C 0,0 km/h (0 Bft)
21.09.2021 05:10 21,2 C 11,2 C 19,7 C 11,1 C 10,9 C 58 % 80 % 66 % 1025,8 hPa 0,0 mm 0,0 km/h (0 Bft) O-NO 67 7,9 C 11,2 C 0,0 km/h (0 Bft)
21.09.2021 05:05 21,2 C 11,3 C 19,7 C 11,2 C 11,0 C 57 % 80 % 66 % 1026,0 hPa 0,0 mm 0,0 km/h (0 Bft) N-NO 22 8,0 C 11,3 C 0,0 km/h (0 Bft)
21.09.2021 05:00 21,2 C 11,3 C 19,7 C 11,2 C 11,0 C 58 % 80 % 66 % 1026,0 hPa 0,0 mm 0,0 km/h (0 Bft) N-NO 22 8,0 C 11,3 C 0,0 km/h (0 Bft)
21.09.2021 04:55 21,2 C 11,4 C 19,7 C 11,3 C 11,0 C 58 % 80 % 66 % 1026,0 hPa 0,0 mm 0,0 km/h (0 Bft) N-NO 22 8,1 C 11,4 C 0,0 km/h (0 Bft)
21.09.2021 04:50 21,2 C 11,4 C 19,7 C 11,3 C 11,1 C 57 % 80 % 66 % 1026,0 hPa 0,0 mm 0,0 km/h (0 Bft) N-NO 22 8,1 C 11,4 C 0,0 km/h (0 Bft)
21.09.2021 04:45 21,2 C 11,4 C 19,7 C 11,3 C 11,1 C 57 % 80 % 66 % 1026,1 hPa 0,0 mm 0,0 km/h (0 Bft) N 360 8,1 C 11,4 C 0,0 km/h (0 Bft)
21.09.2021 04:40 21,2 C 11,4 C 19,7 C 11,3 C 11,1 C 57 % 80 % 66 % 1026,1 hPa 0,0 mm 0,2 km/h (0 Bft) O-NO 67 8,1 C 11,4 C 0,0 km/h (0 Bft)
21.09.2021 04:35 21,2 C 11,5 C 19,7 C 11,4 C 11,2 C 57 % 80 % 66 % 1026,1 hPa 0,0 mm 0,2 km/h (0 Bft) NO 45 8,2 C 11,5 C 0,0 km/h (0 Bft)
21.09.2021 04:30 21,2 C 11,5 C 19,7 C 11,4 C 11,2 C 57 % 80 % 66 % 1026,1 hPa 0,0 mm 0,9 km/h (0 Bft) N-NW 337 8,2 C 11,5 C 0,0 km/h (0 Bft)
21.09.2021 04:25 21,2 C 11,5 C 19,7 C 11,4 C 11,3 C 57 % 80 % 66 % 1026,1 hPa 0,0 mm 1,4 km/h (1 Bft) N-NO 22 8,2 C 11,5 C 2,7 km/h (1 Bft)
21.09.2021 04:20 21,2 C 11,5 C 19,7 C 11,4 C 11,3 C 57 % 80 % 66 % 1026,1 hPa 0,0 mm 0,7 km/h (0 Bft) N 360 8,2 C 11,5 C 1,8 km/h (1 Bft)
21.09.2021 04:15 21,2 C 11,5 C 19,7 C 11,4 C 11,3 C 57 % 80 % 66 % 1026,1 hPa 0,0 mm 0,5 km/h (0 Bft) N-NO 22 8,2 C 11,5 C 0,0 km/h (0 Bft)
21.09.2021 04:10 21,2 C 11,5 C 19,7 C 11,4 C 11,3 C 57 % 79 % 66 % 1026,1 hPa 0,0 mm 0,5 km/h (0 Bft) N-NW 337 8,0 C 11,5 C 0,0 km/h (0 Bft)
21.09.2021 04:05 21,2 C 11,5 C 19,7 C 11,4 C 11,3 C 57 % 79 % 66 % 1026,0 hPa 0,0 mm 2,0 km/h (1 Bft) N 360 8,0 C 11,5 C 3,2 km/h (1 Bft)
21.09.2021 04:00 21,2 C 11,5 C 19,7 C 11,4 C 11,3 C 57 % 80 % 66 % 1026,0 hPa 0,0 mm 2,0 km/h (1 Bft) N 360 8,2 C 11,5 C 3,5 km/h (1 Bft)
21.09.2021 03:55 21,2 C 11,5 C 19,7 C 11,4 C 11,2 C 57 % 79 % 66 % 1026,0 hPa 0,0 mm 0,5 km/h (0 Bft) N 360 8,0 C 11,5 C 0,0 km/h (0 Bft)
21.09.2021 03:50 21,2 C 11,5 C 19,7 C 11,4 C 11,2 C 57 % 79 % 66 % 1026,0 hPa 0,0 mm 0,2 km/h (0 Bft) N-NO 22 8,0 C 11,5 C 0,0 km/h (0 Bft)
21.09.2021 03:45 21,2 C 11,5 C 19,7 C 11,4 C 11,2 C 57 % 78 % 66 % 1025,9 hPa 0,0 mm 0,0 km/h (0 Bft) N 360 7,8 C 11,5 C 0,0 km/h (0 Bft)
21.09.2021 03:40 21,2 C 11,5 C 19,7 C 11,4 C 11,2 C 57 % 78 % 66 % 1025,9 hPa 0,0 mm 0,0 km/h (0 Bft) N-NO 22 7,8 C 11,5 C 0,0 km/h (0 Bft)
21.09.2021 03:35 21,2 C 11,5 C 19,7 C 11,4 C 11,2 C 57 % 78 % 66 % 1025,9 hPa 0,0 mm 0,0 km/h (0 Bft) N 360 7,8 C 11,5 C 0,0 km/h (0 Bft)
21.09.2021 03:30 21,2 C 11,5 C 19,7 C 11,4 C 11,2 C 57 % 78 % 66 % 1025,9 hPa 0,0 mm 0,0 km/h (0 Bft) N 360 7,8 C 11,5 C 0,0 km/h (0 Bft)
21.09.2021 03:25 21,3 C 11,6 C 19,6 C 11,5 C 11,3 C 57 % 78 % 66 % 1025,9 hPa 0,0 mm 0,0 km/h (0 Bft) N 360 7,9 C 11,6 C 0,0 km/h (0 Bft)
21.09.2021 03:20 21,2 C 11,6 C 19,6 C 11,5 C 11,4 C 57 % 78 % 66 % 1025,9 hPa 0,0 mm 0,0 km/h (0 Bft) N 360 7,9 C 11,6 C 0,0 km/h (0 Bft)
21.09.2021 03:15 21,3 C 11,6 C 19,7 C 11,5 C 11,4 C 57 % 78 % 66 % 1025,9 hPa 0,0 mm 0,9 km/h (0 Bft) N-NO 22 7,9 C 11,6 C 0,0 km/h (0 Bft)
21.09.2021 03:10 21,3 C 11,7 C 19,7 C 11,6 C 11,4 C 57 % 78 % 66 % 1025,9 hPa 0,0 mm 1,8 km/h (1 Bft) N 360 8,0 C 11,7 C 0,0 km/h (0 Bft)
21.09.2021 03:05 21,3 C 11,7 C 19,7 C 11,6 C 11,4 C 57 % 78 % 66 % 1025,7 hPa 0,0 mm 3,4 km/h (1 Bft) N 360 8,0 C 11,7 C 3,1 km/h (1 Bft)
21.09.2021 03:00 21,2 C 11,7 C 19,6 C 11,6 C 11,4 C 57 % 78 % 66 % 1025,7 hPa 0,0 mm 3,0 km/h (1 Bft) N 360 8,0 C 11,7 C 1,8 km/h (1 Bft)
21.09.2021 02:55 21,3 C 11,7 C 19,6 C 11,6 C 11,4 C 57 % 78 % 66 % 1025,7 hPa 0,0 mm 1,1 km/h (1 Bft) N 360 8,0 C 11,7 C 4,5 km/h (1 Bft)
21.09.2021 02:50 21,2 C 11,7 C 19,6 C 11,6 C 11,4 C 57 % 77 % 66 % 1025,7 hPa 0,0 mm 0,9 km/h (0 Bft) N 360 7,8 C 11,7 C 0,0 km/h (0 Bft)
21.09.2021 02:45 21,2 C 11,8 C 19,7 C 11,7 C 11,6 C 57 % 77 % 66 % 1025,9 hPa 0,0 mm 2,7 km/h (1 Bft) N 360 7,9 C 11,8 C 1,6 km/h (1 Bft)
21.09.2021 02:40 21,2 C 11,8 C 19,7 C 11,7 C 11,6 C 57 % 78 % 66 % 1025,9 hPa 0,0 mm 3,9 km/h (1 Bft) N 360 8,1 C 11,8 C 6,4 km/h (2 Bft)
21.09.2021 02:35 21,2 C 11,8 C 19,7 C 11,7 C 11,6 C 57 % 77 % 66 % 1025,9 hPa 0,0 mm 4,8 km/h (1 Bft) N-NW 337 7,9 C 11,8 C 3,9 km/h (1 Bft)
21.09.2021 02:30 21,2 C 11,8 C 19,6 C 11,7 C 11,6 C 57 % 77 % 66 % 1025,9 hPa 0,0 mm 4,8 km/h (1 Bft) N 360 7,9 C 11,8 C 4,2 km/h (1 Bft)
21.09.2021 02:25 21,2 C 11,8 C 19,6 C 11,7 C 11,6 C 57 % 77 % 66 % 1025,6 hPa 0,0 mm 3,6 km/h (1 Bft) N 360 7,9 C 11,8 C 4,2 km/h (1 Bft)
21.09.2021 02:20 21,2 C 11,7 C 19,6 C 11,7 C 11,6 C 57 % 77 % 66 % 1025,6 hPa 0,0 mm 2,5 km/h (1 Bft) N-NO 22 7,8 C 11,7 C 4,2 km/h (1 Bft)
21.09.2021 02:15 21,2 C 11,8 C 19,6 C 11,7 C 11,6 C 57 % 77 % 66 % 1025,6 hPa 0,0 mm 2,5 km/h (1 Bft) N-NO 22 7,9 C 11,8 C 0,0 km/h (0 Bft)
21.09.2021 02:10 21,4 C 11,8 C 19,6 C 11,7 C 11,6 C 57 % 77 % 66 % 1025,6 hPa 0,0 mm 3,9 km/h (1 Bft) N-NW 337 7,9 C 11,8 C 2,1 km/h (1 Bft)
21.09.2021 02:05 21,4 C 11,8 C 19,6 C 11,7 C 11,6 C 57 % 76 % 66 % 1025,4 hPa 0,0 mm 3,4 km/h (1 Bft) N 360 7,7 C 11,8 C 1,8 km/h (1 Bft)
21.09.2021 02:00 21,4 C 11,8 C 19,6 C 11,7 C 11,6 C 57 % 76 % 66 % 1025,4 hPa 0,0 mm 3,6 km/h (1 Bft) N-NW 337 7,7 C 11,8 C 4,5 km/h (1 Bft)
21.09.2021 01:55 21,4 C 11,7 C 19,6 C 11,6 C 11,5 C 57 % 76 % 66 % 1025,4 hPa 0,0 mm 2,7 km/h (1 Bft) N 360 7,6 C 11,7 C 3,7 km/h (1 Bft)
21.09.2021 01:50 21,4 C 11,7 C 19,6 C 11,6 C 11,5 C 57 % 76 % 67 % 1025,4 hPa 0,0 mm 1,4 km/h (1 Bft) N 360 7,6 C 11,7 C 3,5 km/h (1 Bft)
21.09.2021 01:45 21,4 C 11,7 C 19,6 C 11,6 C 11,5 C 57 % 76 % 67 % 1025,3 hPa 0,0 mm 1,4 km/h (1 Bft) N-NO 22 7,6 C 11,7 C 1,8 km/h (1 Bft)
21.09.2021 01:40 21,4 C 11,8 C 19,6 C 11,7 C 11,4 C 57 % 76 % 67 % 1025,3 hPa 0,0 mm 1,4 km/h (1 Bft) N-NO 22 7,7 C 11,8 C 1,8 km/h (1 Bft)
21.09.2021 01:35 21,4 C 11,8 C 19,6 C 11,7 C 11,4 C 57 % 76 % 67 % 1025,3 hPa 0,0 mm 1,4 km/h (1 Bft) N-NO 22 7,7 C 11,8 C 0,0 km/h (0 Bft)
21.09.2021 01:30 21,4 C 11,8 C 19,6 C 11,7 C 11,5 C 57 % 76 % 67 % 1025,3 hPa 0,0 mm 1,6 km/h (1 Bft) N-NO 22 7,7 C 11,8 C 0,0 km/h (0 Bft)
21.09.2021 01:25 21,4 C 11,8 C 19,6 C 11,7 C 11,5 C 57 % 76 % 67 % 1025,4 hPa 0,0 mm 0,5 km/h (0 Bft) N-NO 22 7,7 C 11,8 C 1,6 km/h (1 Bft)
21.09.2021 01:20 21,4 C 11,9 C 19,6 C 11,8 C 11,5 C 57 % 76 % 67 % 1025,4 hPa 0,0 mm 0,7 km/h (0 Bft) NO 45 7,8 C 11,9 C 0,0 km/h (0 Bft)
21.09.2021 01:15 21,4 C 11,9 C 19,6 C 11,8 C 11,6 C 57 % 76 % 67 % 1025,4 hPa 0,0 mm 3,0 km/h (1 Bft) N 360 7,8 C 11,9 C 0,0 km/h (0 Bft)
21.09.2021 01:10 21,4 C 11,9 C 19,6 C 11,8 C 11,7 C 57 % 76 % 66 % 1025,4 hPa 0,0 mm 5,0 km/h (1 Bft) N 360 7,8 C 11,9 C 1,8 km/h (1 Bft)
21.09.2021 01:05 21,5 C 11,9 C 19,6 C 11,8 C 11,7 C 57 % 76 % 66 % 1025,1 hPa 0,0 mm 5,5 km/h (1 Bft) N 360 7,8 C 11,9 C 5,5 km/h (1 Bft)
21.09.2021 01:00 21,4 C 11,9 C 19,6 C 11,8 C 11,6 C 57 % 76 % 66 % 1025,1 hPa 0,0 mm 4,8 km/h (1 Bft) N 360 7,8 C 11,9 C 4,8 km/h (1 Bft)
21.09.2021 00:55 21,4 C 11,9 C 19,6 C 11,8 C 11,6 C 57 % 76 % 67 % 1025,1 hPa 0,0 mm 4,3 km/h (1 Bft) N 360 7,8 C 11,9 C 3,4 km/h (1 Bft)
21.09.2021 00:50 21,5 C 11,9 C 19,6 C 11,8 C 11,6 C 57 % 75 % 66 % 1025,1 hPa 0,0 mm 3,4 km/h (1 Bft) N 360 7,6 C 11,9 C 4,2 km/h (1 Bft)
21.09.2021 00:45 21,5 C 11,9 C 19,6 C 11,8 C 11,6 C 56 % 75 % 66 % 1024,9 hPa 0,0 mm 1,8 km/h (1 Bft) N 360 7,6 C 11,9 C 2,6 km/h (1 Bft)
21.09.2021 00:40 21,5 C 11,9 C 19,6 C 11,8 C 11,6 C 56 % 75 % 66 % 1024,9 hPa 0,0 mm 1,4 km/h (1 Bft) N-NW 337 7,6 C 11,9 C 2,1 km/h (1 Bft)
21.09.2021 00:35 21,5 C 11,9 C 19,5 C 11,8 C 11,6 C 56 % 74 % 66 % 1024,9 hPa 0,0 mm 0,7 km/h (0 Bft) N-NO 22 7,4 C 11,9 C 1,8 km/h (1 Bft)
21.09.2021 00:30 21,5 C 12,0 C 19,5 C 11,9 C 11,6 C 56 % 74 % 66 % 1024,9 hPa 0,0 mm 0,9 km/h (0 Bft) N-NW 337 7,5 C 12,0 C 0,0 km/h (0 Bft)
21.09.2021 00:25 21,5 C 12,1 C 19,5 C 12,0 C 11,7 C 56 % 74 % 66 % 1024,9 hPa 0,0 mm 2,3 km/h (1 Bft) N 360 7,6 C 12,1 C 2,3 km/h (1 Bft)
21.09.2021 00:20 21,5 C 12,1 C 19,6 C 12,0 C 11,8 C 56 % 74 % 66 % 1024,9 hPa 0,0 mm 3,4 km/h (1 Bft) N 360 7,6 C 12,1 C 2,1 km/h (1 Bft)
21.09.2021 00:15 21,5 C 12,1 C 19,5 C 12,0 C 11,8 C 56 % 74 % 67 % 1024,9 hPa 0,0 mm 3,6 km/h (1 Bft) N 360 7,6 C 12,1 C 3,1 km/h (1 Bft)
21.09.2021 00:10 21,5 C 12,1 C 19,5 C 12,0 C 11,8 C 56 % 73 % 67 % 1024,9 hPa 0,0 mm 3,0 km/h (1 Bft) N 360 7,4 C 12,1 C 3,9 km/h (1 Bft)
21.09.2021 00:05 21,6 C 12,2 C 19,5 C 12,1 C 11,8 C 56 % 73 % 67 % 1024,7 hPa 0,0 mm 3,4 km/h (1 Bft) N-NO 22 7,5 C 12,2 C 0,0 km/h (0 Bft)
21.09.2021 00:00 21,6 C 12,3 C 19,5 C 12,2 C 12,0 C 56 % 73 % 67 % 1024,7 hPa 0,0 mm 4,8 km/h (1 Bft) N-NO 22 7,6 C 12,3 C 2,4 km/h (1 Bft)
20.09.2021 23:55 21,6 C 12,3 C 19,5 C 12,2 C 11,9 C 56 % 73 % 66 % 1024,7 hPa 0,0 mm 6,1 km/h (2 Bft) N 360 7,6 C 12,3 C 5,5 km/h (1 Bft)
20.09.2021 23:50 21,6 C 12,2 C 19,5 C 12,1 C 11,9 C 56 % 73 % 67 % 1024,7 hPa 0,0 mm 4,6 km/h (1 Bft) N-NO 22 7,5 C 12,2 C 3,9 km/h (1 Bft)
20.09.2021 23:45 21,6 C 12,2 C 19,5 C 12,1 C 11,8 C 56 % 73 % 67 % 1024,6 hPa 0,0 mm 1,8 km/h (1 Bft) N 360 7,5 C 12,2 C 6,1 km/h (2 Bft)
20.09.2021 23:40 21,6 C 12,3 C 19,5 C 12,2 C 11,9 C 56 % 72 % 67 % 1024,6 hPa 0,0 mm 0,7 km/h (0 Bft) N-NW 337 7,4 C 12,3 C 0,0 km/h (0 Bft)
20.09.2021 23:35 21,6 C 12,3 C 19,5 C 12,2 C 12,0 C 56 % 72 % 67 % 1024,6 hPa 0,0 mm 2,0 km/h (1 Bft) O-NO 67 7,4 C 12,3 C 2,7 km/h (1 Bft)
20.09.2021 23:30 21,6 C 12,3 C 19,5 C 12,2 C 12,1 C 56 % 72 % 67 % 1024,6 hPa 0,0 mm 3,2 km/h (1 Bft) N 360 7,4 C 12,3 C 0,0 km/h (0 Bft)
20.09.2021 23:25 21,6 C 12,3 C 19,5 C 12,2 C 12,1 C 56 % 72 % 67 % 1024,6 hPa 0,0 mm 3,4 km/h (1 Bft) N 360 7,4 C 12,3 C 2,4 km/h (1 Bft)
20.09.2021 23:20 21,6 C 12,3 C 19,5 C 12,2 C 12,0 C 56 % 72 % 67 % 1024,6 hPa 0,0 mm 3,0 km/h (1 Bft) N 360 7,4 C 12,3 C 4,5 km/h (1 Bft)
20.09.2021 23:15 21,6 C 12,3 C 19,5 C 12,2 C 12,0 C 56 % 72 % 67 % 1024,6 hPa 0,0 mm 1,1 km/h (1 Bft) N-NW 337 7,4 C 12,3 C 2,4 km/h (1 Bft)
20.09.2021 23:10 21,7 C 12,4 C 19,5 C 12,3 C 12,0 C 56 % 71 % 67 % 1024,6 hPa 0,0 mm 1,4 km/h (1 Bft) N-NO 22 7,3 C 12,4 C 2,7 km/h (1 Bft)
20.09.2021 23:05 21,6 C 12,4 C 19,5 C 12,3 C 12,1 C 56 % 71 % 67 % 1024,6 hPa 0,0 mm 1,4 km/h (1 Bft) N-NO 22 7,3 C 12,4 C 0,0 km/h (0 Bft)
20.09.2021 23:00 21,7 C 12,5 C 19,5 C 12,4 C 12,1 C 56 % 70 % 67 % 1024,6 hPa 0,0 mm 0,7 km/h (0 Bft) N-NO 22 7,2 C 12,5 C 2,6 km/h (1 Bft)
_ Min-Zeit 08:45 22:40 17:20 22:40 22:20 17:45 13:20 23:55 23:00 - 03:20 - - 22:40 22:40 23:05
Minimum _ 18,4 C 8,7 C 18,8 C 8,4 C 7,9 C 46 % 45 % 66 % 1024,6 hPa - 0,0 km/h (0 Bft) - - 5,6 C 8,7 C 0,0 km/h (0 Bft)
_ Max-Zeit 17:00 14:15 02:35 14:15 14:15 04:55 09:00 23:00 22:10 23:00 23:55 - - 10:00 14:15 14:25
Maximum _ 22,6 C 21,1 C 19,7 C 24,4 C 24,4 C 58 % 87 % 67 % 1031,2 hPa 0,0 mm 6,1 km/h
N (2 Bft)
- - 12,6 C 21,1 C 17,5 km/h
NW (3 Bft)
Durchschnitt _ 21,4 C 14,4 C 19,3 C 15,1 C 14,8 C 56 % 68 % 67 % 1027,7 hPa #0,0 mm 1,4 km/h (1 Bft) N - 8,1 C 14,4 C 1,6 km/h (1 Bft)